Wind_Speed
56 55 55 54 54 55 56 57 58 59 59 57 56 56 57 58 59 61 62 63 62 61 61 61 62 61 61 61 61 61 61 61 61 61 62 62 62 63 64 64 65 66
59 58 57 57 58 58 59 60 61 62 62 61 59 58 58 59 60 62 64 64 64 62 61 61 62 62 62 62 62 62 62 62 61 61 61 61 61 63 63 64 65 66
63 62 61 61 61 62 62 63 64 65 64 63 62 60 60 60 61 63 64 66 66 64 63 62 62 62 63 62 63 63 62 63 62 62 62 61 61 61 62 63 65 66
65 64 64 63 64 64 64 66 67 67 67 66 65 63 63 63 64 65 66 67 68 67 66 65 64 64 64 64 64 64 64 64 64 64 63 62 61 60 60 61 63 65
66 66 65 65 66 66 67 68 69 70 70 69 68 67 65 65 65 66 67 69 70 70 69 68 67 67 66 66 66 66 65 65 65 65 65 63 62 61 60 60 61 62
67 67 67 68 69 69 70 71 72 72 73 73 72 71 69 68 68 68 69 70 71 71 71 70 69 69 68 68 69 69 68 67 66 66 65 64 64 63 62 62 61 61
68 67 67 68 68 69 70 71 72 72 73 74 74 74 73 71 71 71 72 73 73 73 72 71 70 69 69 70 70 70 71 70 68 68 67 66 66 65 64 64 64 63
67 67 67 67 67 68 70 70 71 73 74 74 75 75 76 75 74 75 76 77 77 75 74 72 71 70 70 70 71 71 72 72 71 69 68 67 68 68 68 68 67 66
70 70 69 68 67 68 69 71 72 74 76 76 76 76 77 78 77 78 79 79 79 78 76 75 74 73 72 72 72 72 73 73 73 72 70 70 69 69 69 70 70 69
76 76 75 74 73 71 71 72 73 75 76 76 76 77 78 79 80 79 79 77 76 76 76 76 76 77 77 76 76 76 76 76 75 75 75 74 72 70 69 70 71 71
78 78 78 79 79 78 77 76 76 76 76 76 76 77 78 80 81 81 79 77 75 74 74 74 76 78 80 81 81 80 80 79 78 77 76 75 73 71 71 71 71 72
78 78 78 79 80 82 82 82 81 81 80 80 80 80 81 82 83 82 82 81 80 78 77 76 77 78 80 81 82 83 83 82 81 78 75 74 73 73 73 73 73 73
82 80 79 78 79 81 82 84 85 85 85 85 85 86 86 87 87 87 86 86 85 84 83 82 81 80 81 81 82 83 83 83 82 80 78 77 76 75 75 76 77 77
89 87 85 83 82 82 82 83 84 84 85 86 86 87 88 89 90 90 90 90 90 90 89 87 86 85 86 85 85 84 84 83 82 81 80 80 79 78 78 78 79 80
95 94 93 92 91 90 89 88 87 87 87 87 88 88 88 88 89 90 90 90 90 90 90 90 89 90 90 91 90 88 86 85 84 82 82 82 82 81 81 82 83 83
97 97 96 96 95 95 94 93 93 92 92 92 93 92 92 91 90 90 90 90 89 89 90 90 91 91 92 92 93 92 90 88 86 85 84 84 85 84 84 85 86 86
96 96 96 95 94 93 93 93 94 94 95 96 97 97 97 97 96 94 93 92 91 89 88 89 90 91 92 92 93 94 94 92 91 89 88 86 86 86 87 88 89 89
96 96 96 96 95 95 95 96 97 98 98 98 98 99 100 100 100 99 97 96 95 93 91 89 88 89 91 92 93 95 96 97 96 95 94 92 90 88 88 88 90 91
100 100 99 99 99 99 100 101 103 104 104 103 102 102 102 102 102 102 101 100 99 98 96 94 91 90 91 93 94 95 96 97 98 98 99 99 98 96 94 93 92 91
105 105 105 105 105 105 106 107 108 109 108 108 107 106 106 106 105 105 105 104 103 102 101 99 97 95 95 95 96 97 98 99 99 99 99 99 99 100 100 99 98 96
108 109 109 109 109 110 110 110 110 110 110 111 110 110 110 110 110 109 109 108 107 106 105 104 103 103 102 100 98 99 100 102 102 102 101 101 100 99 99 100 100 99
107 108 108 108 109 109 109 109 108 108 109 109 110 110 111 111 111 112 113 112 112 111 109 108 107 108 108 107 105 103 103 103 104 105 105 104 103 102 102 101 101 101
102 102 102 103 103 104 104 104 105 105 105 106 107 107 108 108 109 111 112 113 114 114 113 112 110 109 110 110 110 110 109 108 107 107 107 106 105 105 105 105 104 103
94 95 96 97 97 97 98 99 100 101 101 102 103 103 104 104 105 106 107 109 111 112 113 113 112 111 109 109 109 111 112 112 111 109 109 108 108 107 107 107 106 105
90 91 92 93 93 94 95 96 96 97 97 98 99 99 100 100 100 101 102 103 104 105 107 109 110 109 108 106 106 107 108 111 112 112 110 110 109 109 109 109 107 105
88 89 90 90 91 92 92 93 93 93 94 95 96 96 96 97 97 97 98 98 99 100 101 102 103 104 102 101 100 101 103 105 107 109 110 109 110 110 111 111 110 108
Wind_Direction
281 279 277 275 274 271 269 269 269 272 274 275 274 272 272 273 270 268 266 265 264 262 261 261 261 262 263 264 265 266 266 267 267 268 268 268 267 267 266 266 265 264
280 278 276 273 272 271 269 269 269 271 272 273 273 271 270 270 269 267 266 265 263 261 260 260 260 260 261 262 263 264 265 266 267 268 269 268 268 267 266 265 264 264
279 277 276 273 272 271 270 270 270 272 273 273 272 270 269 268 266 265 264 264 263 261 259 258 258 258 258 259 260 261 263 264 266 267 268 268 267 267 267 265 264 263
277 276 274 272 271 271 271 270 271 272 274 274 272 270 269 268 266 265 263 262 261 260 259 258 257 257 256 256 257 258 260 262 263 265 266 266 266 266 266 266 265 264
275 273 272 271 270 270 270 270 271 272 273 274 273 271 269 266 264 263 262 260 259 259 258 258 257 257 257 256 255 255 256 258 259 261 262 263 264 264 265 265 265 265
273 272 271 271 270 269 269 269 269 270 270 271 270 270 268 266 264 262 261 260 258 257 257 258 258 258 258 257 256 255 255 255 255 257 258 260 261 263 263 264 265 265
271 270 269 268 267 266 265 264 263 263 262 262 262 263 262 262 262 262 262 261 259 258 257 257 257 257 258 257 257 256 255 254 254 254 256 257 259 260 262 263 264 265
270 269 268 266 264 262 261 260 260 259 258 257 256 256 256 256 256 257 258 259 259 258 258 257 258 258 257 257 256 256 256 255 254 254 255 256 258 259 261 262 263 264
266 267 266 265 262 260 258 257 257 256 255 254 254 254 254 254 254 254 254 256 256 257 257 257 258 259 258 258 257 256 255 255 254 254 255 257 259 261 261 261 262 262
266 265 265 264 262 259 256 254 255 254 254 254 253 253 253 253 253 253 254 255 256 256 257 257 258 259 259 259 258 257 256 256 255 256 257 259 261 262 262 262 261 261
268 266 265 264 263 262 259 257 255 254 253 253 253 253 253 254 254 253 253 254 255 257 258 259 259 259 259 260 260 260 260 260 259 258 259 259 260 261 262 262 261 260
270 269 267 265 264 263 263 262 260 257 255 253 253 254 255 255 255 255 254 254 254 256 257 259 260 260 261 261 261 261 262 262 262 261 260 258 259 260 261 263 262 260
270 270 269 267 266 265 264 264 264 263 261 258 257 256 256 257 258 258 258 257 256 257 258 259 260 261 261 262 263 263 263 262 261 261 260 259 257 258 260 262 263 261
270 269 269 268 267 266 265 264 264 264 264 264 263 261 260 260 260 261 261 261 261 261 261 261 261 261 261 262 263 263 263 262 261 260 260 260 258 258 259 261 262 262
271 271 270 269 269 268 266 265 263 263 263 264 265 265 264 263 263 263 263 262 262 262 262 262 262 261 261 262 262 262 262 261 260 259 259 259 259 259 259 260 261 261
272 271 271 271 270 270 268 267 265 264 263 263 263 264 264 264 264 264 264 263 262 261 261 261 261 260 260 260 260 260 260 260 259 259 258 258 258 258 258 259 260 260
271 271 270 270 269 269 269 269 269 268 267 266 265 264 263 263 263 263 263 262 262 260 260 259 259 259 259 258 258 258 259 259 258 258 258 258 257 257 257 257 258 259
272 271 270 269 268 268 269 269 271 272 272 270 269 267 266 264 263 262 262 261 260 259 258 257 257 257 257 257 257 257 257 257 257 257 257 257 258 258 258 257 257 257
273 272 271 270 269 268 268 268 270 272 271 271 270 270 269 267 266 264 263 261 260 258 257 256 256 257 257 257 257 257 256 256 256 256 256 256 256 256 257 257 258 258
274 274 273 273 272 271 270 270 271 271 270 269 269 268 268 268 268 267 266 265 263 261 258 256 256 257 258 258 258 257 257 256 256 255 255 254 254 254 255 255 256 256
275 274 274 274 274 274 274 273 273 272 271 269 268 267 267 266 266 266 266 266 266 265 263 260 258 258 259 260 259 259 258 257 256 255 255 254 253 253 253 253 254 255
276 275 275 275 275 275 275 274 274 273 272 271 270 269 267 266 265 265 264 265 265 265 265 264 262 261 262 262 262 261 260 259 257 256 255 254 253 253 252 252 252 253
277 277 276 276 276 276 275 275 274 274 273 273 272 271 269 268 267 265 264 264 264 264 264 264 264 263 263 264 263 263 262 261 259 257 256 255 254 253 252 252 251 251
277 277 277 276 276 276 276 275 275 274 274 273 273 272 271 270 269 268 266 265 264 263 263 263 262 262 263 263 263 263 263 262 260 258 256 255 254 253 253 252 252 252
278 278 277 277 276 276 276 275 275 275 275 274 274 273 272 271 271 270 268 267 266 265 264 263 262 262 261 262 262 262 262 261 260 259 256 255 254 253 252 252 252 252
279 279 278 278 277 277 276 276 276 275 275 275 275 274 273 273 272 271 270 269 268 267 266 265 264 263 262 261 261 260 260 260 260 259 258 256 254 252 252 251 252 252
Height
5682 5682 5682 5682 5682 5682 5682 5681 5681 5681 5681 5681 5681 5681 5681 5681 5681 5681 5681 5681 5681 5682 5682 5682 5682 5683 5682 5683 5682 5682 5683 5684 5685 5685 5685 5685 5686 5686 5687 5688 5689 5690
5674 5674 5673 5673 5673 5673 5673 5672 5672 5672 5672 5672 5672 5672 5672 5672 5672 5671 5671 5671 5672 5673 5673 5674 5674 5674 5674 5674 5674 5674 5675 5675 5676 5676 5676 5677 5678 5678 5679 5680 5680 5681
5665 5665 5664 5663 5663 5663 5663 5663 5662 5662 5662 5662 5662 5663 5663 5663 5663 5662 5662 5662 5662 5663 5663 5664 5665 5665 5665 5666 5665 5666 5666 5666 5667 5667 5667 5669 5669 5669 5670 5671 5671 5672
5656 5655 5655 5654 5654 5653 5653 5653 5652 5652 5651 5651 5652 5652 5653 5653 5653 5653 5653 5653 5653 5653 5653 5654 5655 5655 5656 5656 5656 5657 5657 5657 5658 5658 5658 5660 5660 5660 5662 5662 5663 5663
5647 5646 5646 5645 5645 5644 5644 5643 5642 5641 5641 5640 5640 5641 5642 5642 5643 5643 5643 5642 5643 5643 5643 5644 5644 5645 5646 5646 5647 5647 5648 5648 5649 5648 5649 5651 5651 5652 5652 5652 5654 5655
5637 5637 5637 5636 5636 5636 5635 5635 5634 5633 5633 5632 5631 5630 5631 5631 5632 5632 5632 5632 5633 5633 5633 5634 5634 5635 5636 5636 5637 5638 5638 5639 5639 5639 5640 5641 5642 5642 5643 5643 5645 5646
5626 5627 5627 5627 5627 5626 5626 5626 5626 5625 5625 5624 5623 5622 5621 5621 5621 5621 5621 5622 5622 5622 5622 5623 5624 5624 5625 5626 5627 5628 5628 5629 5629 5629 5630 5631 5632 5633 5634 5634 5635 5637
5615 5615 5615 5616 5616 5616 5616 5615 5615 5615 5614 5614 5613 5613 5612 5612 5611 5611 5611 5611 5611 5612 5612 5612 5613 5614 5614 5615 5616 5617 5618 5619 5619 5619 5620 5621 5622 5624 5625 5625 5625 5628
5604 5604 5604 5604 5604 5604 5604 5604 5603 5603 5603 5602 5602 5601 5601 5601 5601 5601 5600 5600 5601 5601 5601 5601 5602 5602 5603 5604 5605 5606 5607 5608 5609 5610 5611 5611 5612 5614 5615 5615 5616 5618
5592 5592 5592 5592 5592 5593 5593 5593 5592 5592 5591 5591 5590 5590 5590 5590 5589 5590 5589 5589 5590 5590 5590 5590 5591 5591 5592 5593 5594 5594 5596 5597 5598 5599 5600 5601 5602 5604 5604 5605 5606 5608
5579 5579 5579 5579 5579 5580 5580 5581 5581 5581 5580 5579 5579 5578 5578 5578 5578 5578 5578 5579 5579 5579 5579 5579 5579 5580 5581 5581 5582 5582 5583 5585 5586 5588 5588 5589 5591 5592 5593 5594 5596 5598
5565 5566 5566 5566 5566 5566 5566 5566 5567 5568 5568 5568 5567 5567 5566 5566 5565 5566 5566 5567 5567 5568 5568 5568 5569 5569 5570 5570 5571 5571 5572 5573 5574 5575 5577 5578 5579 5580 5582 5583 5585 5587
5552 5552 5552 5553 5553 5553 5553 5553 5553 5553 5554 5554 5554 5554 5554 5553 5553 5553 5553 5553 5554 5554 5555 5555 5556 5557 5557 5558 5559 5559 5560 5561 5562 5563 5565 5566 5568 5569 5571 5572 5574 5575
5539 5539 5539 5539 5539 5540 5540 5540 5539 5539 5539 5539 5540 5540 5541 5541 5540 5540 5540 5540 5540 5540 5541 5542 5543 5544 5544 5545 5546 5547 5548 5549 5550 5551 5552 5554 5556 5558 5559 5561 5563 5564
5525 5525 5525 5525 5525 5525 5526 5526 5526 5526 5526 5526 5526 5526 5526 5526 5527 5527 5527 5527 5527 5527 5528 5528 5529 5530 5530 5531 5532 5534 5535 5537 5538 5538 5539 5542 5544 5546 5548 5550 5552 5552
5511 5511 5511 5510 5510 5510 5510 5510 5511 5512 5512 5512 5512 5512 5512 5512 5513 5513 5513 5514 5514 5515 5515 5515 5516 5516 5516 5517 5518 5519 5521 5523 5525 5526 5527 5529 5531 5534 5536 5538 5540 5541
5497 5496 5496 5496 5495 5495 5495 5495 5495 5495 5496 5496 5496 5496 5497 5498 5498 5499 5499 5500 5500 5501 5502 5502 5503 5503 5503 5503 5504 5505 5506 5508 5511 5514 5515 5517 5519 5521 5524 5526 5527 5528
5482 5482 5482 5481 5480 5480 5480 5479 5478 5479 5479 5479 5479 5479 5480 5481 5482 5483 5484 5485 5486 5488 5489 5489 5490 5490 5489 5489 5490 5491 5491 5493 5496 5499 5501 5503 5506 5508 5511 5513 5514 5516
5466 5466 5467 5466 5466 5465 5465 5465 5464 5463 5462 5462 5462 5462 5462 5463 5464 5465 5467 5468 5470 5472 5474 5475 5477 5477 5475 5475 5476 5476 5477 5478 5480 5484 5486 5488 5492 5494 5497 5500 5501 5503
5451 5451 5451 5450 5450 5449 5449 5449 5449 5448 5447 5446 5446 5446 5446 5445 5446 5447 5448 5450 5451 5453 5456 5459 5461 5462 5460 5460 5460 5461 5461 5462 5465 5468 5470 5473 5477 5480 5482 5485 5487 5489
5436 5435 5434 5434 5433 5432 5431 5431 5430 5429 5429 5428 5428 5429 5429 5429 5429 5429 5430 5431 5432 5433 5435 5440 5444 5444 5443 5443 5444 5445 5445 5445 5448 5452 5454 5457 5461 5464 5466 5469 5471 5473
5422 5420 5419 5418 5417 5414 5413 5413 5411 5410 5409 5408 5408 5410 5411 5411 5412 5412 5412 5413 5414 5414 5415 5419 5424 5426 5425 5425 5426 5427 5427 5428 5430 5434 5437 5441 5446 5449 5450 5452 5455 5458
5407 5405 5404 5403 5401 5398 5396 5395 5394 5392 5392 5389 5388 5390 5391 5392 5392 5394 5394 5395 5395 5397 5397 5399 5404 5408 5407 5406 5408 5408 5408 5409 5413 5416 5419 5424 5429 5433 5434 5435 5439 5442
5393 5391 5389 5387 5386 5383 5380 5379 5377 5376 5375 5373 5371 5371 5372 5372 5372 5373 5375 5376 5376 5378 5379 5379 5384 5389 5390 5388 5390 5390 5389 5390 5393 5397 5401 5407 5412 5415 5417 5419 5423 5427
5379 5377 5374 5372 5371 5368 5365 5363 5362 5360 5359 5356 5354 5354 5354 5354 5354 5354 5355 5357 5358 5359 5360 5360 5363 5369 5373 5372 5372 5373 5370 5369 5372 5376 5382 5389 5394 5397 5399 5402 5407 5412
5365 5362 5360 5358 5355 5353 5351 5349 5347 5346 5343 5341 5338 5337 5336 5336 5337 5337 5337 5339 5341 5341 5341 5342 5344 5348 5353 5355 5355 5356 5354 5351 5351 5355 5361 5369 5374 5377 5380 5385 5391 5396